| time (UTC) | temp F | wind direction | speed knots | gust knots | rain 1hr in | rain 24hr in | rain mn in | humidity % | barometer mb |
| 20260831061014 | 70 | 105 | 0.0 | 1.7 | 0.00 | 0.07 | 0.00 | 45 | 1020.1 |
| 20260831060512 | 70 | 194 | 0.0 | 2.6 | 0.00 | 0.07 | 0.00 | 44 | 1020.1 |
| 20260831060021 | 70 | 298 | 0.9 | 4.3 | 0.00 | 0.07 | 0.00 | 44 | 1020.1 |
| 20260831055511 | 70 | 161 | 1.7 | 4.3 | 0.00 | 0.07 | 0.07 | 43 | 1020.1 |
| 20260831055003 | 70 | 334 | 0.9 | 8.7 | 0.00 | 0.07 | 0.07 | 43 | 1020.2 |
| 20260831054506 | 70 | 258 | 1.7 | 8.7 | 0.00 | 0.07 | 0.07 | 43 | 1020.2 |
| 20260831054004 | 70 | 232 | 2.6 | 10.4 | 0.00 | 0.07 | 0.07 | 43 | 1020.3 |
| 20260831053508 | 71 | 169 | 3.5 | 10.4 | 0.00 | 0.07 | 0.07 | 43 | 1020.3 |
| 20260831053014 | 71 | 154 | 2.6 | 8.7 | 0.00 | 0.07 | 0.07 | 42 | 1020.2 |
| 20260831052513 | 71 | 167 | 2.6 | 12.2 | 0.00 | 0.07 | 0.07 | 42 | 1020.4 |
| 20260831052011 | 71 | 205 | 1.7 | 12.2 | 0.00 | 0.07 | 0.07 | 42 | 1020.7 |
| 20260831051525 | 72 | 282 | 1.7 | 10.4 | 0.00 | 0.07 | 0.07 | 41 | 1021.0 |
| 20260831051003 | 72 | 246 | 2.6 | 10.4 | 0.00 | 0.07 | 0.07 | 41 | 1021.3 |
| 20260831050503 | 73 | 198 | 2.6 | 11.3 | 0.00 | 0.07 | 0.07 | 41 | 1021.3 |
| 20260831050013 | 73 | 350 | 4.3 | 12.2 | 0.00 | 0.07 | 0.07 | 40 | 1021.6 |
| 20260831045507 | 73 | 187 | 4.3 | 12.2 | 0.00 | 0.07 | 0.07 | 40 | 1021.7 |
| 20260831045008 | 74 | 192 | 5.2 | 15.6 | 0.00 | 0.07 | 0.07 | 41 | 1021.5 |
| 20260831044523 | 74 | 294 | 5.2 | 15.6 | 0.00 | 0.07 | 0.07 | 40 | 1021.6 |
| 20260831044011 | 74 | 194 | 4.3 | 15.6 | 0.00 | 0.07 | 0.07 | 40 | 1021.6 |
| 20260831043510 | 73 | 267 | 4.3 | 15.6 | 0.00 | 0.07 | 0.07 | 41 | 1021.6 |
| 20260831043004 | 71 | 346 | 4.3 | 14.8 | 0.00 | 0.07 | 0.07 | 43 | 1021.4 |
| 20260831042503 | 68 | 173 | 2.6 | 11.3 | 0.00 | 0.07 | 0.07 | 49 | 1021.3 |
| 20260831042007 | 66 | 248 | 2.6 | 7.0 | 0.00 | 0.07 | 0.07 | 56 | 1021.3 |
| 20260831041513 | 65 | 203 | 0.0 | 1.7 | 0.00 | 0.07 | 0.07 | 62 | 1021.1 |
| 20260831041012 | 65 | 207 | 0.0 | 1.7 | 0.00 | 0.07 | 0.07 | 63 | 1021.0 |
| 20260831040512 | 65 | 207 | 0.0 | 1.7 | 0.00 | 0.07 | 0.07 | 63 | 1020.7 |
| 20260831040021 | 66 | 207 | 0.0 | 1.7 | 0.00 | 0.07 | 0.07 | 62 | 1020.5 |
| 20260831035511 | 66 | 207 | 0.0 | 1.7 | 0.00 | 0.07 | 0.07 | 62 | 1020.4 |
| 20260831035003 | 66 | 207 | 0.0 | 1.7 | 0.00 | 0.07 | 0.07 | 1020.3 | |
| 20260831034507 | 66 | 207 | 0.0 | 1.7 | 0.00 | 0.07 | 0.07 | 1020.3 | |
| 20260831034007 | 66 | 220 | 0.0 | 1.7 | 0.00 | 0.07 | 0.07 | 1020.2 | |
| 20260831033511 | 66 | 98 | 0.0 | 1.7 | 0.00 | 0.07 | 0.07 | 1020.2 | |
| 20260831033020 | 67 | 98 | 0.0 | 1.7 | 0.00 | 0.07 | 0.07 | 61 | 1020.3 |
| 20260831032510 | 67 | 115 | 0.0 | 1.7 | 0.00 | 0.07 | 0.07 | 61 | 1020.3 |
| 20260831032012 | 67 | 115 | 0.0 | 1.7 | 0.00 | 0.07 | 0.07 | 59 | 1020.3 |
| 20260831031530 | 67 | 115 | 0.0 | 1.7 | 0.00 | 0.07 | 0.07 | 60 | 1020.2 |
| 20260831031003 | 67 | 119 | 0.0 | 1.7 | 0.00 | 0.07 | 0.07 | 1020.2 | |
| 20260831030506 | 67 | 139 | 0.0 | 1.7 | 0.00 | 0.07 | 0.07 | 1020.1 | |
| 20260831030010 | 67 | 175 | 0.0 | 1.7 | 0.00 | 0.07 | 0.07 | 1020.1 | |
| 20260831025510 | 67 | 111 | 0.0 | 1.7 | 0.00 | 0.07 | 0.07 | 1020.0 | |
| 20260831025011 | 67 | 117 | 0.0 | 1.7 | 0.00 | 0.07 | 0.07 | 1019.9 | |
| 20260831024526 | 67 | 107 | 0.9 | 1.7 | 0.00 | 0.07 | 0.07 | 1019.9 | |
| 20260831024014 | 67 | 103 | 0.9 | 1.7 | 0.00 | 0.07 | 0.07 | 59 | 1019.8 |
| 20260831023516 | 68 | 49 | 0.0 | 1.7 | 0.00 | 0.07 | 0.07 | 59 | 1019.8 |
| 20260831023005 | 68 | 92 | 0.0 | 1.7 | 0.00 | 0.07 | 0.07 | 59 | 1019.8 |
| 20260831022506 | 68 | 51 | 0.0 | 1.7 | 0.00 | 0.07 | 0.07 | 58 | 1019.8 |
| 20260831022006 | 68 | 104 | 0.0 | 1.7 | 0.00 | 0.07 | 0.07 | 57 | 1019.7 |
| 20260831021516 | 69 | 112 | 0.0 | 1.7 | 0.00 | 0.07 | 0.07 | 57 | 1019.5 |
| 20260831021012 | 69 | 132 | 0.0 | 5.2 | 0.00 | 0.07 | 0.07 | 57 | 1019.4 |
| 20260831020514 | 69 | 352 | 0.0 | 5.2 | 0.00 | 0.07 | 0.07 | 57 | 1019.4 |
| 20260831020027 | 69 | 119 | 0.0 | 1.7 | 0.00 | 0.07 | 0.07 | 57 | 1019.4 |
| 20260831015517 | 69 | 94 | 0.0 | 1.7 | 0.00 | 0.07 | 0.07 | 55 | 1019.4 |
| 20260831015005 | 70 | 33 | 0.0 | 1.7 | 0.00 | 0.07 | 0.07 | 55 | 1019.4 |
| 20260831014510 | 70 | 33 | 0.0 | 1.7 | 0.00 | 0.07 | 0.07 | 54 | 1019.4 |
| 20260831014010 | 71 | 69 | 0.0 | 1.7 | 0.00 | 0.07 | 0.07 | 53 | 1019.4 |
| 20260831013512 | 71 | 109 | 0.0 | 1.7 | 0.00 | 0.07 | 0.07 | 51 | 1019.4 |
| 20260831013038 | 71 | 109 | 0.0 | 1.7 | 0.00 | 0.07 | 0.07 | 50 | 1019.3 |
| 20260831012513 | 72 | 167 | 0.0 | 1.7 | 0.00 | 0.07 | 0.07 | 49 | 1019.3 |
| 20260831012012 | 72 | 231 | 0.9 | 1.7 | 0.00 | 0.07 | 0.07 | 49 | 1019.3 |
| 20260831011526 | 73 | 34 | 0.0 | 1.7 | 0.00 | 0.07 | 0.07 | 47 | 1019.1 |
| 20260831011003 | 73 | 150 | 0.0 | 1.7 | 0.00 | 0.07 | 0.07 | 46 | 1019.2 |
| 20260831010508 | 74 | 213 | 0.9 | 1.7 | 0.00 | 0.07 | 0.07 | 44 | 1019.2 |
| 20260831010017 | 75 | 60 | 0.0 | 7.0 | 0.00 | 0.07 | 0.07 | 43 | 1019.0 |
| 20260831005513 | 75 | 34 | 1.7 | 7.0 | 0.00 | 0.07 | 0.07 | 42 | 1019.1 |
| 20260831005015 | 76 | 350 | 0.9 | 4.3 | 0.00 | 0.07 | 0.07 | 40 | 1019.0 |
| 20260831004527 | 76 | 232 | 0.0 | 4.3 | 0.00 | 0.07 | 0.07 | 40 | 1019.1 |
| 20260831004016 | 76 | 213 | 0.0 | 8.7 | 0.00 | 0.07 | 0.07 | 41 | 1019.1 |
| 20260831003517 | 77 | 165 | 1.7 | 8.7 | 0.00 | 0.07 | 0.07 | 37 | 1019.2 |
| 20260831003027 | 77 | 179 | 1.7 | 4.3 | 0.00 | 0.07 | 0.07 | 39 | 1019.2 |
| 20260831002514 | 78 | 144 | 1.7 | 7.0 | 0.00 | 0.07 | 0.07 | 38 | 1019.3 |
| 20260831002014 | 79 | 161 | 0.9 | 7.0 | 0.00 | 0.07 | 0.07 | 35 | 1019.3 |
| 20260831001525 | 79 | 167 | 0.9 | 4.3 | 0.00 | 0.07 | 0.07 | 35 | 1019.2 |
| 20260831001016 | 79 | 262 | 0.9 | 6.1 | 0.00 | 0.07 | 0.07 | 35 | 1019.3 |
| 20260831000516 | 79 | 263 | 1.7 | 6.1 | 0.00 | 0.07 | 0.07 | 35 | 1019.4 |
| 20260831000026 | 79 | 57 | 0.0 | 4.3 | 0.00 | 0.07 | 0.07 | 34 | 1019.2 |
| 20260830235515 | 79 | 211 | 0.9 | 10.4 | 0.00 | 0.07 | 0.07 | 35 | 1019.1 |
| 20260830235014 | 79 | 221 | 1.7 | 10.4 | 0.00 | 0.07 | 0.07 | 35 | 1018.9 |
| 20260830234528 | 80 | 204 | 5.2 | 12.2 | 0.00 | 0.07 | 0.07 | 34 | 1018.8 |
| 20260830234010 | 80 | 194 | 4.3 | 12.2 | 0.00 | 0.07 | 0.07 | 34 | 1019.0 |
| 20260830233513 | 81 | 255 | 3.5 | 11.3 | 0.00 | 0.07 | 0.07 | 33 | 1019.0 |
| 20260830233024 | 80 | 184 | 3.5 | 11.3 | 0.00 | 0.07 | 0.07 | 35 | 1018.9 |
| 20260830232516 | 80 | 188 | 3.5 | 12.2 | 0.00 | 0.07 | 0.07 | 34 | 1018.9 |
| 20260830232014 | 78 | 173 | 3.5 | 12.2 | 0.00 | 0.07 | 0.07 | 35 | 1018.8 |
| 20260830231532 | 78 | 227 | 1.7 | 8.7 | 0.00 | 0.07 | 0.07 | 36 | 1018.9 |
| 20260830231017 | 78 | 209 | 3.5 | 10.4 | 0.00 | 0.07 | 0.07 | 35 | 1018.8 |
| 20260830230516 | 78 | 191 | 3.5 | 13.0 | 0.00 | 0.07 | 0.07 | 36 | 1018.7 |
| 20260830230020 | 78 | 255 | 2.6 | 14.8 | 0.00 | 0.07 | 0.07 | 36 | 1018.7 |
| 20260830225511 | 77 | 217 | 4.3 | 14.8 | 0.00 | 0.07 | 0.07 | 37 | 1018.6 |
| 20260830225015 | 76 | 215 | 4.3 | 11.3 | 0.00 | 0.07 | 0.07 | 37 | 1018.7 |
| 20260830224528 | 76 | 225 | 3.5 | 11.3 | 0.00 | 0.07 | 0.07 | 38 | 1018.7 |
| 20260830224019 | 76 | 199 | 3.5 | 10.4 | 0.00 | 0.07 | 0.07 | 38 | 1018.8 |
| 20260830223515 | 75 | 190 | 3.5 | 10.4 | 0.00 | 0.07 | 0.07 | 38 | 1018.9 |
| 20260830223027 | 75 | 267 | 4.3 | 10.4 | 0.00 | 0.07 | 0.07 | 39 | 1018.9 |
| 20260830222513 | 75 | 221 | 0.9 | 15.6 | 0.00 | 0.07 | 0.07 | 40 | 1019.0 |
| 20260830222011 | 75 | 242 | 1.7 | 15.6 | 0.00 | 0.07 | 0.07 | 39 | 1019.1 |
| 20260830221524 | 74 | 231 | 6.1 | 14.8 | 0.00 | 0.07 | 0.07 | 39 | 1019.2 |
| 20260830221013 | 74 | 161 | 3.5 | 12.2 | 0.00 | 0.07 | 0.07 | 41 | 1019.2 |
| 20260830220515 | 74 | 235 | 1.7 | 5.2 | 0.00 | 0.07 | 0.07 | 40 | 1019.4 |
| 20260830220036 | 74 | 269 | 1.7 | 9.6 | 0.00 | 0.07 | 0.07 | 41 | 1019.4 |
| 20260830215517 | 73 | 234 | 3.5 | 9.6 | 0.00 | 0.07 | 0.07 | 41 | 1019.4 |
| 20260830215014 | 73 | 228 | 0.9 | 11.3 | 0.00 | 0.07 | 0.07 | 44 | 1019.8 |
| 20260830214529 | 73 | 251 | 3.5 | 12.2 | 0.00 | 0.07 | 0.07 | 43 | 1019.6 |
| 20260830214011 | 72 | 231 | 4.3 | 13.9 | 0.00 | 0.07 | 0.07 | 43 | 1019.9 |
| 20260830213503 | 72 | 167 | 6.1 | 13.9 | 0.00 | 0.07 | 0.07 | 44 | 1020.1 |
| 20260830213003 | 71 | 223 | 1.7 | 13.9 | 0.00 | 0.07 | 0.07 | 46 | 1020.1 |
| 20260830212504 | 71 | 242 | 4.3 | 13.9 | 0.01 | 0.07 | 0.07 | 45 | 1020.3 |
| 20260830212003 | 71 | 300 | 3.5 | 11.3 | 0.01 | 0.07 | 0.07 | 48 | 1020.3 |
| 20260830211512 | 70 | 323 | 2.6 | 11.3 | 0.06 | 0.07 | 0.07 | 54 | 1020.5 |
| 20260830211010 | 69 | 255 | 1.7 | 9.6 | 0.06 | 0.09 | 0.07 | 55 | 1020.5 |
| 20260830210509 | 67 | 323 | 3.5 | 9.6 | 0.06 | 0.11 | 0.07 | 59 | 1020.4 |
| 20260830210003 | 66 | 136 | 1.7 | 7.8 | 0.06 | 0.11 | 0.07 | 66 | 1020.6 |
| 20260830205502 | 65 | 65 | 0.9 | 4.3 | 0.06 | 0.11 | 0.07 | 71 | 1020.6 |
| 20260830205002 | 64 | 326 | 0.9 | 2.6 | 0.06 | 0.11 | 0.07 | 71 | 1020.8 |
| 20260830204504 | 64 | 247 | 0.0 | 1.7 | 0.06 | 0.11 | 0.07 | 74 | 1020.8 |
| 20260830204004 | 64 | 251 | 0.9 | 3.5 | 0.06 | 0.11 | 0.07 | 71 | 1020.9 |
| 20260830203504 | 65 | 110 | 0.0 | 10.4 | 0.06 | 0.11 | 0.07 | 69 | 1020.9 |
| 20260830203023 | 66 | 305 | 0.9 | 11.3 | 0.06 | 0.11 | 0.07 | 67 | 1020.8 |
| 20260830202510 | 68 | 298 | 5.2 | 11.3 | 0.05 | 0.10 | 0.06 | 60 | 1021.3 |
| 20260830202003 | 71 | 219 | 3.5 | 11.3 | 0.06 | 0.10 | 0.06 | 61 | 1021.0 |
| 20260830201505 | 74 | 253 | 2.6 | 7.8 | 0.01 | 0.05 | 0.01 | 58 | 1020.9 |
| 20260830201005 | 74 | 251 | 0.0 | 1.7 | 0.01 | 0.05 | 0.01 | 58 | 1020.3 |
| 20260830200504 | 73 | 329 | 0.0 | 1.7 | 0.01 | 0.05 | 0.01 | 58 | 1019.9 |
| 20260830200007 | 73 | 352 | 0.0 | 1.7 | 0.01 | 0.05 | 0.01 | 60 | 1019.6 |
| 20260830195507 | 73 | 338 | 0.0 | 1.7 | 0.01 | 0.05 | 0.01 | 65 | 1019.4 |
| 20260830195012 | 72 | 97 | 0.0 | 1.7 | 0.01 | 0.05 | 0.01 | 63 | 1019.1 |
| 20260830194523 | 73 | 97 | 0.0 | 1.7 | 0.01 | 0.05 | 0.01 | 65 | 1018.9 |
| 20260830194004 | 73 | 61 | 0.0 | 1.7 | 0.01 | 0.05 | 0.01 | 61 | 1018.7 |
| 20260830193504 | 74 | 257 | 0.0 | 4.3 | 0.01 | 0.05 | 0.01 | 61 | 1018.7 |
| 20260830193005 | 75 | 255 | 0.0 | 7.0 | 0.01 | 0.05 | 0.01 | 57 | 1018.5 |
| 20260830192504 | 78 | 40 | 3.5 | 8.7 | 0.01 | 0.05 | 0.01 | 46 | 1018.4 |
| 20260830192008 | 81 | 9 | 2.6 | 8.7 | 0.00 | 0.04 | 0.00 | 41 | 1018.4 |
| 20260830191515 | 83 | 247 | 0.0 | 1.7 | 0.00 | 0.04 | 0.00 | 35 | 1018.2 |
| 20260830191012 | 83 | 83 | 0.9 | 2.6 | 0.00 | 0.04 | 0.00 | 33 | 1017.8 |
| 20260830190516 | 84 | 187 | 0.9 | 5.2 | 0.00 | 0.04 | 0.00 | 33 | 1017.5 |
| 20260830190004 | 84 | 109 | 2.6 | 5.2 | 0.00 | 0.04 | 0.00 | 32 | 1017.4 |
| 20260830185504 | 84 | 207 | 0.9 | 6.1 | 0.00 | 0.04 | 0.00 | 33 | 1017.3 |
| 20260830185004 | 84 | 155 | 1.7 | 6.1 | 0.00 | 0.04 | 0.00 | 34 | 1017.2 |
| 20260830184508 | 83 | 155 | 1.7 | 7.8 | 0.00 | 0.04 | 0.00 | 34 | 1017.4 |
| 20260830184007 | 83 | 94 | 0.9 | 7.8 | 0.00 | 0.04 | 0.00 | 33 | 1017.4 |
| 20260830183507 | 83 | 140 | 1.7 | 7.0 | 0.00 | 0.04 | 0.00 | 33 | 1017.5 |
| 20260830183021 | 84 | 121 | 1.7 | 5.2 | 0.00 | 0.04 | 0.00 | 32 | 1017.7 |
| 20260830182514 | 84 | 123 | 0.9 | 3.5 | 0.00 | 0.04 | 0.00 | 31 | 1017.7 |
| 20260830182016 | 84 | 146 | 0.9 | 3.5 | 0.00 | 0.04 | 0.00 | 32 | 1017.7 |
| 20260830181531 | 84 | 116 | 0.9 | 3.5 | 0.00 | 0.04 | 0.00 | 33 | 1017.8 |
| 20260830181019 | 84 | 105 | 0.9 | 3.5 | 0.00 | 0.04 | 0.00 | 33 | 1017.9 |
| 20260830180503 | 84 | 148 | 0.9 | 2.6 | 0.00 | 0.04 | 0.00 | 34 | 1017.9 |
| 20260830180012 | 84 | 101 | 0.0 | 2.6 | 0.00 | 0.04 | 0.00 | 34 | 1018.1 |
| 20260830175509 | 83 | 72 | 0.9 | 2.6 | 0.00 | 0.04 | 0.00 | 34 | 1018.1 |
| 20260830175010 | 83 | 157 | 0.9 | 2.6 | 0.00 | 0.04 | 0.00 | 32 | 1018.2 |
| 20260830174530 | 84 | 182 | 0.9 | 1.7 | 0.00 | 0.04 | 0.00 | 33 | 1018.3 |
| 20260830174016 | 83 | 351 | 0.9 | 1.7 | 0.00 | 0.04 | 0.00 | 32 | 1018.4 |
| 20260830173520 | 83 | 199 | 0.0 | 2.6 | 0.00 | 0.04 | 0.00 | 33 | 1018.4 |
| 20260830173050 | 82 | 9 | 0.0 | 2.6 | 0.00 | 0.04 | 0.00 | 34 | 1018.4 |
| 20260830172506 | 82 | 295 | 0.0 | 3.5 | 0.00 | 0.04 | 0.00 | 33 | 1018.5 |
| 20260830172008 | 81 | 226 | 0.0 | 3.5 | 0.00 | 0.04 | 0.00 | 35 | 1018.5 |
| 20260830171518 | 80 | 189 | 0.9 | 4.3 | 0.00 | 0.04 | 0.00 | 34 | 1018.5 |
| 20260830171012 | 80 | 96 | 0.9 | 6.1 | 0.00 | 0.04 | 0.00 | 35 | 1018.5 |
| 20260830170516 | 80 | 22 | 1.7 | 6.1 | 0.00 | 0.04 | 0.00 | 35 | 1018.5 |
| 20260830170030 | 80 | 265 | 1.7 | 4.3 | 0.00 | 0.04 | 0.00 | 34 | 1018.6 |
| 20260830165515 | 80 | 325 | 1.7 | 6.1 | 0.00 | 0.04 | 0.00 | 35 | 1018.7 |
| 20260830165020 | 80 | 348 | 1.7 | 6.1 | 0.00 | 0.04 | 0.00 | 35 | 1018.8 |
| 20260830164515 | 80 | 333 | 0.9 | 7.0 | 0.00 | 0.04 | 0.00 | 35 | 1018.8 |
| 20260830164010 | 79 | 222 | 1.7 | 7.0 | 0.00 | 0.04 | 0.00 | 36 | 1018.9 |
| 20260830163510 | 78 | 285 | 0.9 | 3.5 | 0.00 | 0.04 | 0.00 | 37 | 1018.9 |
| 20260830163024 | 78 | 290 | 0.9 | 7.0 | 0.00 | 0.04 | 0.00 | 37 | 1019.0 |
| 20260830162514 | 77 | 306 | 1.7 | 8.7 | 0.00 | 0.04 | 0.00 | 38 | 1019.0 |
| 20260830162016 | 76 | 342 | 2.6 | 8.7 | 0.00 | 0.04 | 0.00 | 38 | 1019.1 |
| 20260830161543 | 76 | 267 | 1.7 | 8.7 | 0.00 | 0.04 | 0.00 | 40 | 1019.2 |
| 20260830161017 | 76 | 228 | 1.7 | 7.8 | 0.00 | 0.04 | 0.00 | 40 | 1019.3 |
| 20260830160508 | 76 | 213 | 2.6 | 7.0 | 0.00 | 0.04 | 0.00 | 40 | 1019.5 |
| 20260830160018 | 75 | 169 | 0.9 | 9.6 | 0.00 | 0.04 | 0.00 | 39 | 1019.5 |
| 20260830155512 | 75 | 77 | 1.7 | 9.6 | 0.00 | 0.04 | 0.00 | 39 | 1019.6 |
| 20260830155017 | 75 | 233 | 3.5 | 8.7 | 0.00 | 0.04 | 0.00 | 40 | 1019.7 |
| 20260830154526 | 75 | 248 | 1.7 | 8.7 | 0.00 | 0.04 | 0.00 | 40 | 1019.7 |
| 20260830154017 | 75 | 268 | 2.6 | 9.6 | 0.00 | 0.04 | 0.00 | 40 | 1019.5 |
| 20260830153517 | 75 | 213 | 1.7 | 9.6 | 0.00 | 0.04 | 0.00 | 40 | 1019.6 |
| 20260830153011 | 75 | 277 | 2.6 | 12.2 | 0.00 | 0.04 | 0.00 | 40 | 1019.6 |
| 20260830152508 | 74 | 252 | 5.2 | 12.2 | 0.00 | 0.04 | 0.00 | 40 | 1019.6 |
| 20260830152009 | 74 | 299 | 1.7 | 7.8 | 0.00 | 0.04 | 0.00 | 42 | 1019.6 |
| 20260830151523 | 73 | 331 | 1.7 | 7.0 | 0.00 | 0.04 | 0.00 | 43 | 1019.6 |
| 20260830151011 | 72 | 169 | 1.7 | 10.4 | 0.00 | 0.04 | 0.00 | 46 | 1019.7 |
| 20260830150517 | 70 | 236 | 2.6 | 10.4 | 0.00 | 0.04 | 0.00 | 49 | 1019.8 |
| 20260830150031 | 69 | 180 | 1.7 | 2.6 | 0.00 | 0.04 | 0.00 | 53 | 1019.9 |
| 20260830145518 | 68 | 192 | 0.0 | 4.3 | 0.00 | 0.04 | 0.00 | 55 | 1019.8 |
| 20260830145006 | 67 | 182 | 0.9 | 4.3 | 0.00 | 0.04 | 0.00 | 58 | 1019.8 |
| 20260830144516 | 67 | 263 | 0.0 | 2.6 | 0.00 | 0.04 | 0.00 | 64 | 1019.6 |
| 20260830144013 | 66 | 268 | 0.0 | 2.6 | 0.00 | 0.04 | 0.00 | 66 | 1019.3 |
| 20260830143513 | 66 | 135 | 0.0 | 1.7 | 0.00 | 0.04 | 0.00 | 66 | 1019.4 |
| 20260830143026 | 66 | 107 | 0.0 | 1.7 | 0.00 | 0.04 | 0.00 | 66 | 1019.2 |
| 20260830142518 | 65 | 107 | 0.0 | 1.7 | 0.00 | 0.04 | 0.00 | 66 | 1019.0 |
| 20260830142019 | 65 | 107 | 0.0 | 1.7 | 0.00 | 0.04 | 0.00 | 66 | 1019.1 |
| 20260830141535 | 65 | 107 | 0.0 | 1.7 | 0.00 | 0.04 | 0.00 | 67 | 1018.9 |
| 20260830141008 | 65 | 195 | 0.0 | 1.7 | 0.00 | 0.04 | 0.00 | 66 | 1019.0 |
| 20260830140507 | 64 | 195 | 0.0 | 1.7 | 0.00 | 0.04 | 0.00 | 67 | 1019.2 |
| 20260830140021 | 64 | 195 | 0.0 | 1.7 | 0.00 | 0.04 | 0.00 | 67 | 1019.2 |
| 20260830135514 | 64 | 197 | 0.0 | 2.6 | 0.00 | 0.04 | 0.00 | 66 | 1019.4 |
| 20260830135013 | 63 | 261 | 0.9 | 2.6 | 0.00 | 0.04 | 0.00 | 65 | 1019.2 |
| 20260830134537 | 63 | 352 | 0.0 | 1.7 | 0.00 | 0.04 | 0.00 | 67 | 1019.1 |
| 20260830134014 | 63 | 352 | 0.0 | 1.7 | 0.00 | 0.04 | 0.00 | 68 | 1018.9 |
| 20260830133520 | 63 | 352 | 0.0 | 1.7 | 0.00 | 0.04 | 0.00 | 67 | 1019.1 |
| 20260830133032 | 62 | 352 | 0.0 | 1.7 | 0.00 | 0.04 | 0.00 | 66 | 1019.2 |
| 20260830132508 | 62 | 90 | 0.0 | 1.7 | 0.00 | 0.04 | 0.00 | 66 | 1019.1 |
| 20260830132014 | 62 | 97 | 0.0 | 1.7 | 0.00 | 0.04 | 0.00 | 66 | 1019.0 |
| 20260830131527 | 62 | 97 | 0.0 | 1.7 | 0.00 | 0.04 | 0.00 | 66 | 1018.9 |
| 20260830131019 | 62 | 97 | 0.0 | 1.7 | 0.00 | 0.04 | 0.00 | 65 | 1018.9 |
| 20260830130518 | 62 | 193 | 0.0 | 2.6 | 0.00 | 0.04 | 0.00 | 65 | 1018.9 |
| 20260830130035 | 62 | 193 | 0.0 | 2.6 | 0.00 | 0.04 | 0.00 | 66 | 1018.8 |
| 20260830125517 | 62 | 245 | 0.0 | 1.7 | 0.00 | 0.04 | 0.00 | 66 | 1018.9 |
| 20260830125020 | 62 | 205 | 0.0 | 1.7 | 0.00 | 0.04 | 0.00 | 65 | 1018.8 |
| 20260830124515 | 62 | 206 | 0.0 | 1.7 | 0.00 | 0.04 | 0.00 | 64 | 1018.8 |
| 20260830124011 | 62 | 193 | 0.0 | 1.7 | 0.00 | 0.04 | 0.00 | 64 | 1018.7 |
| 20260830123504 | 62 | 197 | 0.0 | 1.7 | 0.00 | 0.04 | 0.00 | 65 | 1018.7 |
| 20260830123004 | 62 | 197 | 0.0 | 1.7 | 0.00 | 0.04 | 0.00 | 64 | 1018.5 |
| 20260830122504 | 62 | 197 | 0.0 | 1.7 | 0.00 | 0.04 | 0.00 | 65 | 1018.5 |
| 20260830122004 | 62 | 117 | 0.0 | 1.7 | 0.00 | 0.04 | 0.00 | 65 | 1018.4 |
| 20260830121514 | 62 | 116 | 0.0 | 1.7 | 0.00 | 0.04 | 0.00 | 64 | 1018.2 |
| 20260830121007 | 62 | 118 | 0.0 | 1.7 | 0.00 | 0.04 | 0.00 | 64 | 1018.2 |
| 20260830120511 | 62 | 170 | 0.0 | 1.7 | 0.00 | 0.04 | 0.00 | 64 | 1018.2 |
| 20260830120024 | 62 | 170 | 0.0 | 1.7 | 0.00 | 0.04 | 0.00 | 63 | 1018.1 |
| 20260830115504 | 62 | 189 | 0.9 | 1.7 | 0.00 | 0.04 | 0.00 | 64 | 1018.2 |
| 20260830115004 | 62 | 160 | 0.0 | 1.7 | 0.00 | 0.04 | 0.00 | 63 | 1018.1 |
| 20260830114505 | 63 | 160 | 0.0 | 1.7 | 0.00 | 0.04 | 0.00 | 63 | 1018.1 |
| 20260830114008 | 63 | 160 | 0.0 | 0.9 | 0.00 | 0.04 | 0.00 | 62 | 1018.0 |
| 20260830113507 | 63 | 160 | 0.0 | 1.7 | 0.00 | 0.04 | 0.00 | 61 | 1018.0 |
| 20260830113019 | 63 | 160 | 0.0 | 1.7 | 0.00 | 0.04 | 0.00 | 62 | 1018.0 |
| 20260830112512 | 64 | 128 | 0.0 | 1.7 | 0.00 | 0.04 | 0.00 | 60 | 1018.0 |
| 20260830112013 | 64 | 128 | 0.0 | 1.7 | 0.00 | 0.04 | 0.00 | 60 | 1017.9 |
| 20260830111504 | 64 | 232 | 0.0 | 2.6 | 0.00 | 0.04 | 0.00 | 57 | 1018.0 |
| 20260830111004 | 64 | 224 | 0.0 | 2.6 | 0.00 | 0.04 | 0.00 | 57 | 1017.8 |
| 20260830110504 | 64 | 178 | 0.0 | 1.7 | 0.00 | 0.04 | 0.00 | 56 | 1017.7 |
| 20260830110010 | 65 | 165 | 0.0 | 1.7 | 0.00 | 0.04 | 0.00 | 56 | 1017.7 |
| 20260830105510 | 65 | 165 | 0.0 | 1.7 | 0.00 | 0.04 | 0.00 | 55 | 1017.7 |
| 20260830105009 | 65 | 165 | 0.0 | 1.7 | 0.00 | 0.04 | 0.00 | 55 | 1017.7 |
| 20260830104524 | 66 | 163 | 0.0 | 1.7 | 0.00 | 0.04 | 0.00 | 56 | 1017.8 |
| 20260830104012 | 66 | 260 | 0.0 | 1.7 | 0.00 | 0.04 | 0.00 | 54 | 1017.8 |
| 20260830103502 | 66 | 260 | 0.0 | 1.7 | 0.00 | 0.04 | 0.00 | 51 | 1017.9 |
| 20260830103009 | 67 | 264 | 0.0 | 1.7 | 0.00 | 0.04 | 0.00 | 52 | 1018.0 |
| 20260830102508 | 67 | 267 | 0.0 | 1.7 | 0.00 | 0.04 | 0.00 | 1018.0 | |
| 20260830102006 | 67 | 267 | 0.0 | 1.7 | 0.00 | 0.04 | 0.00 | 50 | 1018.1 |
| 20260830101517 | 68 | 267 | 0.0 | 1.7 | 0.00 | 0.04 | 0.00 | 50 | 1018.1 |
| 20260830101014 | 68 | 252 | 0.0 | 1.7 | 0.00 | 0.04 | 0.00 | 50 | 1018.0 |
| 20260830100513 | 68 | 205 | 0.0 | 1.7 | 0.00 | 0.04 | 0.00 | 48 | 1018.0 |
| 20260830100028 | 69 | 205 | 0.0 | 1.7 | 0.00 | 0.04 | 0.00 | 48 | 1017.8 |
| 20260830095503 | 69 | 205 | 0.0 | 1.7 | 0.00 | 0.04 | 0.00 | 47 | 1017.6 |
| 20260830095003 | 70 | 205 | 0.9 | 1.7 | 0.00 | 0.04 | 0.00 | 45 | 1017.5 |
| 20260830094507 | 70 | 212 | 0.0 | 1.7 | 0.00 | 0.04 | 0.00 | 45 | 1017.5 |
| 20260830094005 | 70 | 298 | 0.0 | 2.6 | 0.00 | 0.04 | 0.00 | 45 | 1017.4 |
| 20260830093512 | 70 | 144 | 0.0 | 2.6 | 0.00 | 0.04 | 0.00 | 44 | 1017.6 |
| 20260830090014 | 69 | 232 | 0.9 | 7.0 | 0.00 | 0.04 | 0.00 | 46 | 1017.7 |
| 20260830085508 | 68 | 264 | 0.9 | 5.2 | 0.00 | 0.04 | 0.00 | 47 | 1017.7 |
| 20260830085012 | 68 | 217 | 0.0 | 3.5 | 0.00 | 0.04 | 0.00 | 49 | 1017.8 |
| 20260830084526 | 68 | 209 | 0.0 | 3.5 | 0.00 | 0.04 | 0.00 | 49 | 1017.8 |
| 20260830084014 | 67 | 313 | 0.0 | 3.5 | 0.00 | 0.04 | 0.00 | 52 | 1017.8 |
| 20260830083501 | 67 | 298 | 0.0 | 3.5 | 0.00 | 0.04 | 0.00 | 51 | 1017.9 |
| 20260830083008 | 66 | 232 | 0.0 | 1.7 | 0.00 | 0.04 | 0.00 | 52 | 1018.0 |
| 20260830082504 | 65 | 223 | 0.0 | 3.5 | 0.00 | 0.04 | 0.00 | 55 | 1018.0 |
| 20260830082008 | 64 | 202 | 0.0 | 3.5 | 0.00 | 0.04 | 0.00 | 56 | 1018.0 |
| 20260830081520 | 64 | 214 | 0.0 | 1.7 | 0.00 | 0.04 | 0.00 | 60 | 1018.0 |
| 20260830081010 | 64 | 155 | 0.0 | 1.7 | 0.00 | 0.04 | 0.00 | 61 | 1018.1 |
| 20260830080513 | 63 | 237 | 0.0 | 1.7 | 0.00 | 0.04 | 0.00 | 62 | 1018.2 |
| 20260830080030 | 63 | 238 | 0.0 | 1.7 | 0.00 | 0.04 | 0.00 | 62 | 1018.2 |
| 20260830075504 | 63 | 288 | 0.0 | 1.7 | 0.00 | 0.04 | 0.00 | 65 | 1018.1 |
| 20260830075006 | 63 | 186 | 0.9 | 1.7 | 0.00 | 0.04 | 0.00 | 66 | 1018.2 |
| 20260830074521 | 63 | 74 | 0.0 | 1.7 | 0.00 | 0.04 | 0.00 | 66 | 1018.2 |
| 20260830074010 | 63 | 64 | 0.0 | 1.7 | 0.00 | 0.04 | 0.00 | 65 | 1018.2 |
| 20260830073511 | 63 | 244 | 0.9 | 1.7 | 0.00 | 0.04 | 0.00 | 67 | 1018.3 |
| 20260830073028 | 63 | 38 | 0.9 | 1.7 | 0.00 | 0.04 | 0.00 | 66 | 1018.2 |
| 20260830072513 | 63 | 32 | 0.0 | 1.7 | 0.00 | 0.04 | 0.00 | 65 | 1018.2 |
| 20260830072015 | 63 | 225 | 0.0 | 1.7 | 0.00 | 0.04 | 0.00 | 65 | 1018.2 |
| 20260830071505 | 64 | 239 | 0.0 | 1.7 | 0.00 | 0.04 | 0.00 | 64 | 1018.2 |
| 20260830071004 | 64 | 239 | 0.0 | 1.7 | 0.00 | 0.04 | 0.00 | 64 | 1018.2 |
| 20260830070506 | 64 | 239 | 0.0 | 1.7 | 0.00 | 0.04 | 0.00 | 64 | 1018.4 |
| 20260830070018 | 64 | 239 | 0.0 | 1.7 | 0.00 | 0.04 | 0.00 | 63 | 1018.3 |
| 20260830065512 | 65 | 239 | 0.0 | 0.9 | 0.00 | 0.04 | 0.00 | 62 | 1018.4 |
| 20260830065018 | 65 | 239 | 0.0 | 1.7 | 0.00 | 0.04 | 0.00 | 61 | 1018.5 |
| 20260830064536 | 65 | 239 | 0.0 | 1.7 | 0.00 | 0.04 | 0.00 | 60 | 1018.7 |
| 20260830064016 | 66 | 239 | 0.0 | 1.7 | 0.00 | 0.04 | 0.00 | 60 | 1018.6 |
| 20260830063508 | 66 | 239 | 0.0 | 1.7 | 0.00 | 0.04 | 0.00 | 60 | 1018.6 |
| 20260830063008 | 66 | 239 | 0.0 | 1.7 | 0.00 | 0.04 | 0.00 | 59 | 1018.6 |
| 20260830062509 | 67 | 242 | 0.0 | 1.7 | 0.00 | 0.04 | 0.00 | 59 | 1018.8 |
| 20260830062013 | 67 | 124 | 0.0 | 2.6 | 0.00 | 0.04 | 0.00 | 58 | 1018.7 |
| 20260830061527 | 67 | 120 | 0.0 | 2.6 | 0.00 | 0.04 | 0.00 | 55 | 1018.9 |